Temperature
22 22 21 21 23 25 27 29 30 30 30 29 29 29 27 26 25 23 23 22 21 21 21 20 20 20 19 19 19 19 19 19 19 19 19 19 19 18 18 18 18 19 19 19 19 19 19 19 19
22 21 22 24 25 26 28 29 29 30 30 29 29 28 27 25 24 23 23 22 21 21 20 20 20 20 19 19 19 19 19 19 19 19 19 19 19 19 18 18 18 18 18 19 19 19 19 19 19
22 23 24 26 27 28 28 29 30 30 30 29 28 27 26 25 24 23 22 22 22 20 20 20 20 20 19 19 19 19 19 19 19 19 19 19 19 19 19 18 18 18 18 18 19 18 18 18 18
22 24 26 28 29 30 30 31 31 30 30 29 28 27 25 24 24 23 22 22 22 20 20 21 20 20 19 19 19 19 19 19 19 19 19 19 19 19 19 18 18 18 18 18 18 18 18 18 18
24 25 27 28 30 31 32 31 31 30 30 29 27 26 24 24 23 23 23 22 22 21 20 20 20 20 19 19 19 19 19 19 19 19 19 19 19 19 19 19 18 18 18 18 18 18 18 18 19
26 27 28 29 30 31 32 31 31 30 30 29 27 26 24 24 23 23 23 22 22 21 20 20 20 20 19 19 19 19 19 19 19 19 19 19 19 19 19 19 19 18 18 19 18 18 18 18 18
26 27 28 29 30 30 31 31 30 30 30 29 27 26 24 24 23 23 23 22 22 21 21 20 20 20 19 19 19 19 19 19 19 19 19 19 19 19 19 19 19 19 18 18 18 18 18 19 19
28 29 29 29 30 30 31 31 30 30 29 28 28 26 25 24 23 23 23 22 22 22 21 20 20 20 19 19 19 19 19 19 19 19 19 19 19 19 19 19 19 19 19 18 18 18 18 19 19
29 29 28 30 30 30 31 31 30 29 29 28 27 26 25 24 24 23 23 22 22 22 21 20 20 19 19 19 19 19 19 19 19 19 19 19 18 18 18 18 18 18 18 18 18 18 18 18 19
30 29 30 31 32 32 31 31 30 30 29 28 27 26 25 24 24 24 23 23 22 22 21 20 20 20 19 19 19 19 19 19 19 19 19 18 18 18 18 18 18 18 18 18 18 18 18 18 18
32 31 32 32 32 32 32 31 30 30 29 28 27 26 25 24 24 24 23 23 22 21 21 21 20 20 20 19 19 19 19 18 18 18 18 18 18 18 18 18 18 18 18 18 18 18 18 18 18
33 33 33 32 32 32 32 31 31 30 28 27 27 26 25 25 24 24 23 22 22 21 21 20 20 20 19 19 19 19 19 18 18 18 18 18 18 18 18 18 18 18 18 18 18 18 18 18 18
32 33 33 32 32 32 32 31 31 29 28 27 27 26 25 25 24 24 23 22 22 21 21 20 20 20 19 19 19 19 19 19 18 18 18 18 18 18 18 18 18 18 18 18 18 18 18 18 18
33 33 33 32 32 32 32 31 30 29 28 27 27 26 25 25 24 23 23 22 21 21 20 20 20 19 19 19 19 19 19 18 18 18 18 18 18 18 18 18 18 18 18 18 18 18 18 18 18
33 32 32 32 33 32 31 30 30 29 29 28 27 26 25 25 24 23 22 22 21 21 20 20 20 19 19 19 19 18 18 18 18 18 18 18 18 18 18 18 18 18 18 18 18 18 18 18 18
32 31 30 32 33 33 31 29 30 29 29 28 28 27 26 25 24 23 23 22 21 20 20 20 20 19 19 19 19 18 18 18 18 18 18 18 18 18 18 18 18 18 18 18 18 18 18 18 18
30 30 31 31 33 33 32 30 30 30 29 29 28 27 26 25 24 24 23 22 21 20 20 20 19 19 19 19 19 19 18 18 18 18 18 18 18 18 18 18 18 18 18 18 18 18 18 18 18
30 30 31 31 33 33 31 31 31 30 30 29 28 28 26 25 25 24 23 22 21 20 20 20 19 19 19 18 18 18 18 18 18 18 18 18 17 17 18 17 18 18 17 18 18 18 18 18 18
32 32 32 32 33 33 32 32 32 31 31 30 29 28 27 26 25 24 23 22 21 20 20 19 19 19 19 18 18 18 18 18 18 18 18 18 17 17 17 17 17 17 17 17 17 17 18 18 18
33 32 32 32 34 33 32 32 32 32 31 31 30 29 27 26 25 24 23 22 21 20 20 19 19 19 19 18 18 18 18 18 18 18 18 18 17 17 17 17 17 17 17 17 17 17 17 17 17
33 32 32 32 33 33 32 30 30 32 31 31 30 29 28 27 25 24 23 22 22 21 20 19 19 19 19 18 18 18 18 18 18 18 18 18 17 17 17 17 17 17 17 17 17 17 17 17 17
32 33 33 33 32 31 31 28 29 30 31 31 31 29 29 27 26 25 23 23 22 21 20 20 19 19 19 19 18 18 18 18 18 18 18 18 17 17 17 17 17 17 17 17 17 17 17 17 17
33 34 33 32 31 29 30 28 29 30 30 30 31 30 29 28 26 25 24 23 22 21 21 20 20 19 19 19 19 18 18 18 18 18 18 18 17 17 17 17 17 17 17 17 17 17 17 17 17
34 33 33 31 30 28 30 29 29 30 29 30 31 30 29 28 27 26 24 23 23 22 21 20 20 20 19 19 19 18 18 18 18 18 18 18 17 17 17 17 17 17 16 16 16 16 16 16 17
33 32 29 28 28 29 30 29 30 31 32 32 31 30 30 29 27 26 25 23 23 22 21 21 20 20 19 19 19 19 18 18 18 18 18 17 17 17 17 17 17 16 16 16 16 16 16 16 16
33 32 29 28 28 29 30 29 29 31 32 32 31 30 30 29 27 26 25 24 23 22 22 21 20 20 19 19 19 18 18 18 18 18 18 17 17 17 17 17 17 16 16 16 16 16 16 16 16
33 32 32 30 29 28 29 28 30 31 31 31 31 30 30 29 28 27 25 24 23 23 22 21 20 20 19 19 19 18 18 18 18 18 17 17 17 17 17 17 17 16 16 16 16 16 16 16 16
34 33 32 31 29 28 29 28 28 29 30 30 30 30 30 29 28 27 26 25 24 23 22 21 20 20 19 19 19 18 18 18 18 18 17 17 17 17 17 16 16 16 16 16 16 15 15 15 15
33 33 32 32 31 29 28 28 30 30 30 30 30 29 29 29 28 27 26 25 24 23 22 21 20 20 19 19 19 18 18 18 18 18 17 17 17 17 16 16 16 16 16 16 16 15 15 15 15
34 33 33 31 30 30 29 28 31 30 31 30 29 28 28 28 27 27 26 25 24 23 22 21 20 20 19 19 19 18 18 18 18 17 17 17 17 17 16 16 16 16 16 15 15 15 15 15 15
Wind_Speed
10 11 10 5 4 2 7 11 12 13 13 13 12 12 16 15 10 9 7 10 14 14 14 15 14 13 13 13 12 12 12 11 11 11 10 10 10 10 9 9 9 8 8 8 8 8 8 7 7
9 11 8 4 3 3 9 11 12 13 11 11 13 15 16 16 13 10 9 10 14 15 15 15 15 14 13 12 12 12 11 11 10 10 9 9 9 9 9 8 8 7 7 7 7 7 7 6 6
11 12 6 4 2 7 10 10 10 11 11 12 13 14 12 10 11 9 10 11 14 16 16 17 16 14 13 12 12 11 11 10 9 9 8 8 8 8 7 7 7 7 7 6 6 6 6 5 5
6 6 5 1 7 10 10 10 10 11 11 12 11 12 12 11 10 12 11 11 14 15 17 17 16 15 13 12 12 11 10 9 8 8 7 7 7 6 6 6 6 6 6 6 6 5 5 5 5
7 4 2 4 8 10 10 11 11 11 11 13 14 14 13 13 13 13 11 11 13 14 16 17 16 15 13 12 11 10 9 9 8 7 6 6 6 5 5 5 5 6 6 5 5 5 5 5 6
4 3 0 6 10 10 11 10 11 11 12 12 13 14 11 11 12 11 11 10 12 14 15 16 16 15 14 12 11 9 8 8 7 6 6 6 6 5 5 5 5 5 5 5 5 5 5 5 6
5 3 2 6 10 10 10 10 10 9 11 11 11 12 10 10 11 11 10 10 11 13 13 14 14 13 13 12 11 9 8 7 6 5 6 6 6 6 6 6 5 5 5 5 5 6 6 6 7
4 2 4 7 9 9 9 10 10 11 10 9 9 10 10 11 11 11 10 10 10 11 12 11 12 12 11 10 11 10 9 7 6 5 5 6 6 6 7 6 6 6 6 6 6 6 7 7 8
4 1 5 7 8 8 7 10 10 10 11 11 13 14 14 12 11 11 10 10 9 9 9 9 10 9 9 10 10 10 9 7 6 5 5 6 5 5 6 6 7 7 7 7 7 8 9 9 10
2 3 5 7 7 8 8 7 7 9 10 12 13 14 14 12 11 11 10 9 9 8 8 8 8 7 7 7 8 7 7 7 6 5 5 5 3 3 3 6 8 8 8 7 8 9 9 9 9
3 5 5 6 6 7 7 7 7 8 9 10 12 13 13 12 10 10 9 9 9 8 7 8 8 6 5 5 5 4 5 6 5 3 3 2 1 2 3 4 5 6 7 6 7 7 7 8 6
3 4 5 6 5 5 6 7 8 10 10 10 12 13 11 11 10 9 9 10 8 7 7 7 7 6 5 4 3 3 2 3 3 4 2 2 0 0 1 1 2 3 4 4 3 4 5 4 4
1 2 3 4 3 5 6 7 8 11 11 12 13 12 11 10 10 9 9 9 8 7 6 7 7 7 5 4 2 2 2 2 3 4 3 1 1 0 1 1 0 1 2 2 2 3 3 2 3
1 2 2 2 2 5 7 7 7 10 11 12 12 11 10 10 9 9 9 8 7 7 6 6 7 7 5 3 1 1 1 2 3 4 3 1 1 1 1 1 1 1 2 3 3 3 3 3 3
2 2 1 1 3 6 8 5 5 8 11 11 11 11 10 10 9 9 9 8 8 7 6 5 7 7 4 3 1 1 1 2 2 3 3 1 0 1 0 1 1 1 3 3 2 2 2 3 3
4 2 2 2 2 4 5 5 7 9 11 11 10 11 11 9 9 9 10 9 8 7 6 4 5 6 4 3 1 1 1 1 1 2 3 1 0 0 1 1 1 2 2 2 1 1 2 2 2
5 5 3 2 2 3 4 5 7 9 10 10 10 10 11 10 9 9 10 10 9 8 7 5 4 6 4 3 2 0 1 2 2 2 2 2 0 1 1 1 1 2 1 1 2 0 1 2 2
6 4 1 1 3 3 3 6 11 11 11 11 10 10 10 10 9 10 10 10 9 9 7 6 4 4 4 3 2 1 1 1 1 2 1 1 0 0 1 1 1 2 1 1 2 2 1 2 2
9 4 3 2 3 3 4 7 10 11 11 11 11 10 11 10 10 10 11 11 10 9 7 6 5 4 3 2 2 2 1 1 1 1 2 1 0 0 1 2 1 1 1 1 2 2 2 1 1
8 6 4 4 4 4 2 2 7 9 10 10 11 11 12 12 11 10 10 10 10 9 8 7 5 5 3 2 1 1 1 1 2 1 1 1 1 1 0 1 2 1 0 2 2 1 2 2 1
6 7 7 6 5 4 2 1 3 7 9 10 11 11 12 13 14 12 10 10 10 9 9 7 5 5 4 3 2 1 1 0 1 2 1 1 1 1 1 1 2 2 1 1 1 1 1 1 1
7 8 9 7 5 5 4 2 5 7 9 10 11 10 12 14 14 13 11 10 10 10 10 8 7 5 4 3 3 3 2 2 1 2 1 2 1 0 1 1 1 2 2 1 1 0 1 1 2
8 9 10 7 6 7 5 2 5 7 7 10 11 11 11 13 15 15 14 11 10 11 10 9 7 6 5 4 3 2 1 1 1 1 1 2 1 1 0 0 1 1 1 1 2 1 1 0 1
8 11 10 7 5 8 7 4 4 6 7 9 12 13 12 12 14 15 14 12 10 10 10 10 8 6 5 4 3 2 2 1 0 0 1 1 1 1 0 0 1 1 1 1 1 1 1 1 1
10 9 6 6 6 7 4 1 2 5 8 9 11 12 13 12 13 14 13 12 10 10 10 11 9 7 5 4 4 3 2 2 2 1 1 1 0 1 0 1 0 1 1 1 1 1 1 2 1
11 10 7 7 7 6 2 1 2 2 5 7 9 11 12 13 13 13 13 13 11 11 10 11 10 8 7 5 4 3 2 2 1 1 1 1 1 1 1 0 0 1 1 2 1 2 2 1 2
11 9 7 8 9 7 2 2 3 4 4 7 9 10 11 11 13 14 14 13 12 11 11 11 10 8 7 6 5 4 3 1 1 1 1 1 0 0 1 0 0 0 1 2 2 2 2 1 2
13 10 7 7 5 6 4 3 3 7 6 7 8 8 10 11 11 11 12 13 12 11 11 11 10 8 7 6 5 5 3 2 2 1 0 0 1 1 1 1 0 0 0 1 2 2 2 2 2
10 11 9 7 5 6 5 3 3 6 7 7 7 7 8 9 11 12 11 11 10 10 11 11 10 9 7 6 5 4 4 3 3 2 1 0 1 1 1 1 1 1 1 1 1 2 2 2 3
12 12 11 8 7 6 5 3 2 4 7 9 7 6 8 7 8 10 10 10 10 10 9 9 10 9 8 6 5 5 4 3 3 2 1 1 1 0 0 1 1 1 1 1 1 2 2 2 3
Wind_Direction
199 215 221 237 248 223 62 60 62 65 61 55 52 60 63 58 66 91 114 108 107 110 116 115 111 109 107 104 104 104 105 109 112 111 113 118 119 119 122 123 124 125 126 127 129 132 133 132 131
222 226 232 241 245 73 69 63 61 64 68 71 65 66 70 68 80 99 105 107 111 112 117 115 115 112 111 108 105 104 106 109 114 114 117 121 122 124 127 128 129 129 129 130 130 130 134 133 137
247 249 253 241 59 65 70 70 74 74 71 74 74 67 66 77 84 99 112 116 111 113 115 118 121 118 116 114 111 108 107 108 112 115 118 122 123 127 131 133 135 134 134 136 137 138 139 141 149
244 242 244 266 64 65 75 81 79 78 73 72 77 78 75 77 94 106 113 109 106 113 117 123 125 124 122 120 119 117 114 112 114 118 121 126 129 128 133 139 140 143 143 145 147 151 155 161 168
236 268 239 77 76 76 76 80 84 82 78 77 83 88 85 86 98 109 112 109 110 113 119 128 130 130 129 127 126 124 122 123 127 131 134 136 137 140 143 150 149 148 151 153 160 165 172 182 191
264 251 60 80 79 78 77 78 76 76 82 87 93 95 93 108 110 112 114 112 110 113 118 128 132 133 134 133 133 132 130 130 134 140 147 149 149 156 160 163 162 161 164 170 179 184 189 197 207
256 294 53 73 81 76 79 78 81 77 75 80 92 99 111 113 114 119 116 112 112 116 121 129 132 134 137 138 138 138 140 140 141 145 154 164 170 174 175 174 173 177 182 188 195 202 206 213 221
252 304 54 69 78 76 80 85 84 83 80 91 92 104 116 123 125 121 117 109 109 115 122 129 134 136 140 140 145 145 146 147 148 148 159 173 179 183 186 184 186 191 195 198 205 213 218 222 229
270 30 59 69 78 91 86 87 90 94 91 84 83 97 118 129 129 125 120 114 113 111 118 124 129 134 141 142 144 150 151 154 158 167 176 179 186 184 188 187 185 194 203 207 214 222 226 229 231
147 88 78 76 81 95 90 91 99 96 94 94 96 106 120 129 132 130 124 119 115 115 116 119 122 127 136 132 136 150 149 155 172 169 180 192 200 186 174 173 186 197 208 216 223 228 229 232 231
102 89 72 71 75 86 95 95 95 99 97 107 119 125 130 134 133 129 124 116 115 117 112 116 115 114 113 108 134 138 142 145 157 144 153 164 181 164 156 166 184 202 209 219 219 222 227 225 223
86 72 76 75 74 82 94 97 97 95 101 118 124 126 129 134 131 126 123 122 122 118 110 108 115 108 91 90 100 99 112 129 131 135 129 132 127 322 160 181 177 194 201 207 213 222 227 227 216
36 101 99 102 104 101 99 100 99 103 113 118 120 127 129 123 121 121 120 121 122 119 117 114 113 105 97 77 53 91 86 102 113 117 127 90 64 359 12 35 64 253 235 196 220 238 236 234 228
221 92 55 90 120 120 108 104 111 118 124 126 130 131 131 129 127 125 122 123 123 119 112 111 114 110 109 107 85 62 76 81 87 102 112 122 56 31 9 354 307 303 272 239 232 233 219 219 224
314 43 338 248 156 129 113 105 124 138 134 136 137 139 139 137 134 134 132 130 126 118 117 126 129 118 115 124 159 119 77 80 88 93 104 108 109 64 352 275 256 282 270 259 242 247 236 227 225
303 246 209 239 196 157 152 139 156 154 147 143 143 145 143 144 146 143 138 135 130 129 123 125 127 125 130 132 153 109 114 102 97 113 118 121 3 38 328 298 314 298 285 301 251 265 251 240 234
271 245 199 182 219 184 169 142 149 163 158 151 151 149 146 149 151 148 146 144 139 135 134 134 119 126 140 137 136 145 105 91 95 95 92 127 162 295 290 328 329 300 302 306 299 308 270 271 264
261 258 273 196 217 182 170 159 167 176 166 160 161 156 153 153 156 152 150 145 140 136 134 134 124 119 135 137 153 185 148 125 105 100 86 111 161 287 312 341 336 316 330 337 324 303 264 263 267
263 279 294 259 237 231 209 174 171 176 175 167 165 162 158 155 155 153 152 148 145 141 140 141 140 132 137 145 174 182 186 175 146 133 141 142 215 326 357 337 330 332 350 323 319 314 294 264 267
277 289 270 281 265 266 265 168 166 176 178 173 170 168 161 157 152 156 157 155 152 148 148 149 152 147 155 154 168 183 171 171 157 125 134 153 155 278 290 294 300 338 340 317 304 301 310 300 219
288 289 287 278 281 284 224 226 211 180 174 175 170 168 166 161 159 159 163 163 158 155 158 158 152 152 155 155 159 157 139 184 135 160 170 169 181 211 311 350 335 327 303 269 269 283 294 301 294
276 275 277 283 284 284 264 245 223 201 183 174 168 166 167 163 160 159 165 168 162 160 158 150 150 151 151 168 169 175 182 185 186 189 181 156 166 248 307 345 325 323 325 328 298 102 298 308 299
274 285 285 292 290 283 275 251 231 197 182 175 168 167 174 164 160 160 164 166 164 163 158 151 148 153 157 174 164 189 192 194 172 157 155 173 168 217 298 8 322 314 315 344 344 8 347 354 306
279 285 295 308 283 262 253 227 216 187 178 182 169 166 166 158 155 156 158 158 165 160 155 150 148 153 162 172 167 196 190 172 16 187 141 207 173 177 228 151 326 314 331 346 312 308 309 321 311
253 263 279 289 267 254 237 221 225 172 177 171 160 160 155 154 154 155 156 157 163 159 156 150 151 158 164 167 167 186 186 196 210 250 198 254 230 130 54 32 316 301 322 325 339 317 306 317 314
250 254 252 275 283 292 265 165 144 143 142 145 149 156 153 155 155 157 158 157 162 159 154 151 155 162 167 168 166 164 178 213 213 234 253 249 269 32 99 85 112 351 343 333 350 323 303 323 306
256 256 250 260 270 276 269 173 161 162 147 142 149 154 153 153 155 156 158 159 163 163 158 155 154 160 165 165 159 160 181 193 205 191 228 284 302 106 89 66 99 297 315 329 329 304 309 317 288
250 262 275 278 290 299 297 267 199 164 167 159 157 168 158 153 152 151 156 160 163 162 156 151 150 154 159 155 166 166 172 167 178 219 235 325 348 12 54 26 343 304 306 301 296 297 300 304 300
242 249 256 269 281 286 291 287 189 183 170 163 162 174 153 149 151 151 153 150 150 156 153 151 152 157 158 156 162 151 160 167 171 177 196 167 341 12 14 314 321 311 302 284 283 289 296 299 300
256 259 263 261 260 267 277 278 199 169 162 148 150 155 141 142 145 142 142 145 152 151 153 157 155 159 159 158 156 154 155 164 177 181 188 171 196 243 192 290 321 319 323 315 308 302 310 305 303
Height
1490 1491 1492 1495 1494 1492 1487 1477 1471 1473 1475 1477 1478 1479 1484 1488 1495 1507 1507 1506 1506 1506 1506 1507 1508 1509 1510 1512 1513 1515 1516 1518 1520 1522 1524 1525 1527 1528 1530 1532 1533 1534 1536 1537 1538 1540 1541 1542 1544
1491 1492 1495 1494 1493 1494 1488 1477 1477 1476 1478 1479 1481 1484 1488 1494 1499 1504 1506 1507 1508 1507 1508 1509 1510 1511 1512 1514 1515 1517 1518 1520 1522 1523 1525 1527 1528 1530 1531 1532 1534 1535 1536 1537 1539 1540 1541 1543 1544
1491 1494 1495 1489 1484 1487 1486 1477 1477 1477 1479 1481 1485 1489 1494 1499 1502 1505 1507 1509 1509 1509 1510 1510 1511 1513 1514 1515 1517 1518 1520 1522 1523 1525 1526 1528 1529 1530 1532 1533 1534 1536 1537 1538 1539 1540 1542 1543 1544
1492 1494 1491 1485 1484 1477 1475 1475 1476 1478 1481 1483 1486 1492 1499 1503 1504 1507 1509 1510 1511 1511 1511 1512 1513 1514 1516 1517 1518 1520 1522 1523 1525 1526 1527 1529 1530 1531 1532 1534 1535 1536 1537 1538 1539 1541 1542 1543 1544
1494 1492 1489 1486 1481 1474 1473 1475 1477 1480 1483 1486 1490 1496 1502 1506 1507 1508 1510 1511 1512 1513 1513 1514 1515 1516 1517 1519 1520 1522 1523 1524 1525 1527 1528 1529 1530 1532 1533 1534 1535 1536 1538 1539 1540 1541 1542 1543 1544
1493 1488 1490 1489 1482 1476 1475 1477 1479 1482 1484 1488 1492 1498 1505 1508 1509 1510 1511 1512 1514 1514 1515 1515 1517 1518 1519 1520 1522 1523 1524 1525 1526 1527 1528 1529 1531 1532 1533 1534 1535 1536 1538 1538 1540 1540 1541 1542 1543
1491 1488 1488 1484 1483 1481 1478 1480 1482 1484 1486 1490 1493 1499 1506 1509 1510 1512 1513 1514 1515 1516 1516 1517 1518 1519 1520 1521 1523 1524 1525 1526 1527 1527 1528 1529 1531 1532 1533 1534 1535 1536 1537 1538 1539 1540 1541 1542 1543
1486 1485 1486 1484 1485 1485 1480 1481 1484 1486 1489 1492 1494 1499 1505 1510 1511 1513 1514 1515 1517 1518 1518 1519 1520 1521 1521 1523 1524 1525 1526 1527 1527 1528 1528 1529 1531 1532 1533 1534 1535 1536 1537 1537 1538 1539 1540 1541 1542
1483 1487 1491 1485 1484 1483 1481 1482 1486 1488 1491 1494 1497 1500 1506 1509 1511 1513 1515 1517 1518 1519 1520 1521 1522 1522 1523 1524 1525 1526 1527 1527 1528 1528 1529 1529 1531 1532 1533 1534 1535 1535 1536 1537 1537 1538 1539 1540 1541
1481 1489 1485 1479 1478 1479 1481 1483 1485 1488 1492 1496 1500 1503 1507 1509 1511 1513 1515 1517 1519 1520 1521 1522 1523 1523 1525 1526 1526 1527 1528 1528 1529 1529 1529 1530 1531 1532 1533 1534 1534 1535 1535 1536 1536 1537 1538 1538 1539
1478 1481 1478 1477 1478 1480 1481 1483 1486 1488 1493 1497 1501 1504 1507 1509 1512 1514 1516 1518 1519 1521 1522 1522 1523 1524 1525 1526 1527 1528 1529 1529 1529 1530 1530 1531 1532 1532 1533 1533 1533 1534 1534 1535 1535 1536 1536 1537 1538
1477 1476 1477 1478 1480 1480 1481 1483 1486 1489 1495 1498 1501 1504 1507 1509 1512 1514 1516 1518 1520 1521 1522 1523 1524 1524 1526 1527 1528 1529 1530 1530 1530 1530 1530 1531 1532 1532 1532 1533 1533 1533 1533 1533 1534 1534 1535 1536 1537
1477 1476 1476 1478 1479 1480 1482 1484 1488 1491 1495 1499 1502 1505 1507 1510 1512 1515 1517 1518 1520 1521 1522 1523 1524 1524 1525 1527 1528 1530 1530 1531 1530 1530 1530 1530 1531 1532 1532 1532 1532 1533 1533 1533 1533 1533 1534 1535 1535
1476 1476 1477 1477 1478 1480 1482 1486 1489 1492 1496 1499 1502 1505 1508 1510 1513 1515 1517 1518 1520 1521 1522 1522 1523 1524 1525 1526 1528 1529 1530 1531 1531 1530 1530 1530 1531 1531 1531 1531 1531 1532 1532 1532 1532 1532 1533 1533 1534
1477 1479 1479 1477 1476 1478 1483 1490 1489 1492 1495 1498 1502 1505 1508 1510 1513 1515 1517 1518 1519 1520 1522 1522 1523 1524 1525 1526 1527 1529 1529 1530 1530 1530 1530 1530 1530 1530 1530 1530 1530 1531 1531 1531 1531 1531 1531 1532 1532
1479 1483 1488 1479 1474 1476 1482 1495 1488 1490 1493 1497 1500 1504 1507 1510 1512 1514 1516 1518 1519 1520 1521 1522 1524 1524 1525 1526 1527 1529 1529 1530 1530 1530 1529 1529 1529 1529 1529 1529 1530 1530 1530 1530 1530 1529 1530 1530 1531
1486 1491 1486 1481 1473 1474 1478 1487 1486 1488 1491 1495 1499 1502 1505 1509 1512 1514 1516 1517 1518 1519 1521 1522 1523 1524 1525 1526 1527 1528 1529 1529 1529 1530 1529 1528 1529 1529 1529 1529 1529 1529 1529 1528 1528 1528 1528 1528 1529
1491 1487 1484 1482 1472 1471 1477 1480 1482 1484 1487 1492 1496 1499 1503 1507 1510 1513 1515 1517 1518 1519 1520 1521 1523 1523 1524 1525 1526 1527 1528 1528 1529 1529 1528 1528 1528 1528 1528 1528 1528 1528 1528 1527 1527 1526 1527 1527 1528
1475 1477 1482 1476 1468 1471 1474 1476 1477 1480 1483 1487 1492 1497 1501 1505 1509 1511 1514 1516 1517 1518 1519 1520 1522 1523 1524 1524 1526 1527 1527 1528 1528 1528 1528 1528 1528 1528 1527 1527 1527 1527 1526 1526 1526 1525 1526 1526 1527
1471 1477 1479 1473 1466 1469 1473 1475 1473 1476 1480 1483 1488 1493 1498 1502 1506 1510 1513 1515 1516 1517 1518 1519 1520 1522 1523 1524 1525 1526 1527 1527 1527 1527 1527 1527 1527 1527 1527 1526 1526 1526 1525 1525 1524 1524 1524 1525 1526
1474 1478 1476 1475 1468 1468 1474 1484 1478 1474 1477 1481 1485 1490 1494 1499 1503 1508 1511 1514 1515 1516 1517 1519 1520 1521 1522 1523 1524 1525 1526 1527 1527 1527 1527 1527 1526 1526 1526 1525 1525 1525 1524 1524 1523 1523 1523 1524 1524
1477 1467 1467 1470 1477 1482 1479 1501 1487 1476 1475 1478 1482 1487 1492 1496 1501 1505 1509 1512 1514 1515 1516 1518 1519 1520 1521 1522 1523 1524 1525 1526 1526 1526 1526 1526 1526 1525 1525 1525 1524 1524 1523 1523 1523 1522 1522 1522 1523
1468 1462 1465 1469 1478 1487 1483 1495 1489 1475 1478 1477 1479 1484 1489 1493 1498 1502 1506 1509 1512 1514 1515 1516 1518 1519 1520 1521 1522 1524 1524 1525 1525 1525 1525 1525 1525 1525 1524 1524 1523 1523 1522 1522 1521 1521 1521 1521 1521
1461 1464 1468 1472 1483 1499 1483 1489 1491 1477 1476 1474 1475 1480 1486 1490 1495 1499 1504 1507 1510 1512 1514 1515 1517 1518 1519 1520 1521 1522 1523 1524 1524 1524 1524 1525 1524 1524 1524 1523 1522 1522 1521 1521 1521 1520 1520 1520 1520
1463 1476 1495 1504 1505 1497 1475 1484 1483 1466 1465 1468 1472 1478 1483 1488 1492 1497 1501 1505 1508 1511 1513 1514 1516 1517 1518 1520 1520 1521 1522 1523 1523 1523 1524 1524 1524 1523 1523 1522 1521 1521 1521 1520 1520 1520 1519 1519 1519
1463 1470 1496 1512 1510 1493 1480 1486 1476 1464 1465 1468 1472 1477 1481 1486 1490 1495 1499 1503 1506 1509 1511 1513 1514 1516 1518 1519 1520 1520 1521 1522 1522 1523 1523 1523 1523 1523 1522 1522 1521 1520 1520 1520 1519 1519 1518 1518 1517
1464 1467 1466 1481 1487 1495 1488 1484 1473 1465 1468 1469 1472 1476 1480 1484 1488 1493 1497 1501 1504 1507 1510 1512 1514 1515 1517 1518 1519 1520 1520 1521 1522 1522 1522 1523 1523 1522 1521 1521 1520 1520 1519 1519 1518 1517 1517 1517 1516
1454 1457 1465 1476 1494 1502 1495 1489 1484 1473 1471 1471 1473 1476 1479 1483 1487 1491 1495 1499 1503 1506 1509 1511 1513 1514 1516 1517 1518 1519 1520 1520 1521 1521 1521 1521 1521 1521 1520 1520 1519 1519 1518 1518 1517 1516 1516 1515 1515
1456 1458 1461 1467 1474 1494 1504 1495 1467 1467 1468 1471 1474 1477 1478 1482 1486 1490 1494 1497 1501 1504 1507 1509 1512 1513 1515 1516 1517 1518 1519 1519 1520 1520 1520 1520 1520 1520 1519 1519 1518 1518 1517 1517 1516 1515 1515 1514 1513
1450 1452 1456 1471 1476 1476 1489 1488 1460 1463 1464 1470 1475 1477 1478 1482 1486 1490 1493 1496 1500 1503 1506 1508 1510 1512 1514 1515 1516 1517 1518 1518 1519 1519 1519 1519 1519 1518 1518 1517 1517 1516 1516 1515 1515 1514 1513 1512 1511